Regional Weather Roundup
Issued by NWS Upton, NY

Current Version | Previous Version | Graphics & Text | Print | Product List | Glossary Off
Versions: 1 2 3 4 5 6 7 8 9 10 11 12 13 14 15 16 17 18 19 20 21 22 23 24 25 26 27

000
ASUS41 KOKX 181509
RWROKX

REGIONAL WEATHER ROUNDUP
NATIONAL WEATHER SERVICE NEW YORK NY
1100 AM EDT MON SEP 18 2017

NOTE: "FAIR" INDICATES FEW OR NO CLOUDS BELOW 12,000 FEET WITH NO
SIGNIFICANT WEATHER AND/OR OBSTRUCTIONS TO VISIBILITY.

NYZ071-072-176-178-NJZ106-104-181600-
NEW YORK CITY METRO AREA

CITY           SKY/WX    TMP DP  RH WIND       PRES   REMARKS
Central Park   CLOUDY    71  65  81 VRB5      30.15F
Bronx Bot Gard   N/A     72  63  73 SE6       30.15S
LaGuardia APRT CLOUDY    70  66  87 NE15      30.12F
Kennedy INTL   CLOUDY    73  67  81 NE7       30.13F
Breezy Point     N/A     70 N/A N/A NE10        N/A
Newark/Liberty CLOUDY    71  66  84 NE9       30.12F
Teterboro      CLOUDY    72  65  78 E6        30.12S
$$

NYZ177-179-078>081-181600-
LONG ISLAND NEW YORK

CITY           SKY/WX    TMP DP  RH WIND       PRES   REMARKS
Jones Beach      N/A     70 N/A N/A NE12        N/A
Matinecock PT    N/A     68 N/A N/A E16         N/A
Farmingdale    CLOUDY    71  67  87 NE10      30.13S
MacArthur/ISP  CLOUDY    70  68  93 NE9       30.12F
Shirley        CLOUDY    72  69  90 VRB5      30.13F
Mt Sinai Harb    N/A    N/A N/A N/A E9          N/A
Westhampton    CLOUDY    70  66  87 E8        30.14F
East Hampton   CLOUDY    68  66  93 E8        30.13F
Montauk          N/A     69  68  96 NE8       30.15S
$$

NYZ052-065-067-181600-
HUDSON VALLEY

CITY           SKY/WX    TMP DP  RH WIND       PRES   REMARKS
White Plains   PTSUNNY   70  64  81 E6        30.14F
Larchmont Harb   N/A     68 N/A N/A NE13        N/A
Croton On Huds   N/A     73 N/A N/A E1          N/A
Newburgh       PTSUNNY   72  66  83 VRB6      30.16F FOG
Montgomery     CLOUDY    71  66  84 CALM      30.15S
Poughkeepsie   PTSUNNY   74  65  73 VRB3      30.13F
Albany         MOSUNNY   72  65  78 S7        30.15F
$$

NJZ001-105-106-008-010-013-015-019>022-104-181600-
NEW JERSEY

CITY           SKY/WX    TMP DP  RH WIND       PRES   REMARKS
Newark/Liberty CLOUDY    71  66  84 NE9       30.12F
Teterboro      CLOUDY    72  65  78 E6        30.12S
Caldwell       CLOUDY    70  66  87 E9        30.14F
Somerville     NOT AVBL
Linden         CLOUDY    71  65  81 CALM      30.13S
Perth Amboy      N/A     70 N/A N/A NE8         N/A
Sussex         CLOUDY    71  65  81 N6        30.15S
Andover          N/A     69  63  81 CALM      30.15S
Trenton        CLOUDY    72  67  84 NE9       30.11F
Millville      CLOUDY    75  71  87 NE14      30.09S
Atlantic City  LGT RAIN  72  71  97 NE10      30.08S FOG
Wrightstown    CLOUDY    70  68  93 NE12      30.08F
Toms River     LGT RAIN  69  68  96 NE9       30.11F FOG
Belmar         LGT RAIN  69  68  96 NE8       30.12F FOG
$$

PAZ047>061-062-071-181600-
EASTERN PENNSYLVANIA

CITY           SKY/WX    TMP DP  RH WIND       PRES   REMARKS
Philadelphia   CLOUDY    72  65  78 NE10      30.11S
Allentown      CLOUDY    70  62  76 E6        30.14S
Scranton       SUNNY     73  64  73 VRB3      30.14F
$$

CTZ002-004>006-009-010-012-RIZ004-006-007-MAZ004-011-015-181600-
SOUTHERN NEW ENGLAND
 IN CT

CITY           SKY/WX    TMP DP  RH WIND       PRES   REMARKS
Bradley INTL   CLOUDY    67  63  87 E5        30.17F
Hartford       CLOUDY    70  64  81 NW7       30.16F
Danbury        CLOUDY    71  64  78 E6        30.16F
Wtrbury/Oxford CLOUDY    65  62  90 NE7       30.18
Norwalk Harbor   N/A     68 N/A N/A NE10        N/A
Bridgeport     CLOUDY    71  64  78 NE8       30.14F
Meriden        CLOUDY    69  63  81 NW7       30.15F
New Haven      CLOUDY    71  64  78 NE6       30.14F
Chester        CLOUDY   N/A N/A N/A E6        30.16S
Groton         CLOUDY    71  67  87 E7        30.14S
Wilimantic     CLOUDY    70  64  81 E6        30.17S

 IN RI

CITY           SKY/WX    TMP DP  RH WIND       PRES   REMARKS
Providence     CLOUDY    71  67  87 E6        30.17S
Block Island   CLOUDY    69  67  93 NE9       30.15S
Westerly       CLOUDY    72  67  84 NE6       30.16R
 IN MA

CITY           SKY/WX    TMP DP  RH WIND       PRES   REMARKS
Boston         CLOUDY    67  65  93 E8        30.18S
Worcester      CLOUDY    65  61  87 NE6       30.19F
Westfield      CLOUDY    68  66  93 VRB3      30.16S
Provincetown   CLOUDY    67  65  93 E10       30.18S
Nantucket      CLOUDY    68  67  96 NE12      30.14S
$$

ANZ330-335-338-340-345-350-353-355-181600-
COASTAL MARINE OBSERVATIONS


STATION/POSITION TIME  SKY/WX   TEMP    WIND        PRES    VSBY  WAVE
                                AIR SEA DIR/SP/G                  HT/PER
                 (UTC)          (F)     (DEG/KT/KT) (MB)    (MI)  (FT/S)
NY HARB ENTRANCE 1350            70 71   60/ 16/ 17 1018.9          5/11
20 S FIRE ISLAND 1350            69 70   50/ 14/ 16 1019.4          6/13
GREAT SOUTH BAY  1400            70 74   50/  8/ 12   N/A
23 SSW MONTAUK P 1350            68 68              1020.2          7/10
15 E BARNEGAT LI 1430               72                N/A           5/10
HUDSON CANYON    1350            70 70   50/ 16/ 17 1017.5          8/13
KINGS POINT      1430            68 71   70/  4/  8 1020.2
EXECUTION ROCKS  1445            70      70/ 12/ 16   N/A
WESTERN LI SOUND NOT AVBL
CENTRAL LI SOUND NOT AVBL
EASTERN LI SOUND NOT AVBL
ROBBINS REEF     1430            68      40/ 13/ 14 1020.8
$$


>>>>>>>>>>>>>>>>>>>>>>>>>>>> KEY <<<<<<<<<<<<<<<<<<<<<<<<<<<
>                                                          <
>     SKY/WX - Sky Condition/Present Weather               <
>     TMP    - Temperature in Fahrenheit                   <
>     DP     - Dew Point in Fahrenheit                     <
>     RH     - Relative Humidity in Percent                <
>     WIND   - Direction (from) and Speed in MPH           <
>     PRES   - Mean Sea Level Pressure (inches of Hg)      <
>     WCI    - Wind Chill Index                            <
>     VSB    - VISIBILITY IN MILES                         <
>     HX     - HEAT INDEX                                  <
>     TC     - TEMPERATURE IN CELSIUS                      <
>     VRB    - VARIABLE WIND DIRECTION                     <
>                                                          <
>>>>>>>>>>>>>>>>>>>>>>>>>>>> KEY <<<<<<<<<<<<<<<<<<<<<<<<<<<




USA.gov is the U.S. government's official web portal to all federal, state and local government web resources and services.